Time,TemperatureF,DewpointF,PressureIn,WindDirection,WindDirectionDegrees,WindSpeedMPH,WindSpeedGustMPH,Humidity,HourlyPrecipIn,Conditions,Clouds,dailyrainin,SoftwareType,DateUTC
2013-01-01 00:00:00,38.0,35.0,27.92,ENE,67,0.0,2.0,86,0.00,,,0.00,Rainwise IP-100,2013-01-01 05:00:00,
2013-01-01 00:05:00,38.0,33.0,27.92,ENE,67,0.0,0.0,83,0.00,,,0.00,Rainwise IP-100,2013-01-01 05:05:00,
2013-01-01 00:10:00,38.0,33.0,27.92,ENE,67,0.0,0.0,84,0.00,,,0.00,Rainwise IP-100,2013-01-01 05:10:00,
2013-01-01 00:15:00,38.0,35.0,27.92,South,180,0.0,2.0,85,0.00,,,0.00,Rainwise IP-100,2013-01-01 05:15:00,
2013-01-01 00:20:00,38.0,35.0,27.92,South,180,0.0,0.0,88,0.00,,,0.00,Rainwise IP-100,2013-01-01 05:20:00,
2013-01-01 00:25:00,38.0,35.0,27.91,South,180,0.0,0.0,85,0.00,,,0.00,Rainwise IP-100,2013-01-01 05:25:00,
2013-01-01 00:30:00,38.0,35.0,27.91,South,180,0.0,0.0,85,0.00,,,0.00,Rainwise IP-100,2013-01-01 05:30:00,
2013-01-01 00:35:00,38.0,33.0,27.90,South,180,0.0,0.0,84,0.00,,,0.00,Rainwise IP-100,2013-01-01 05:35:00,
2013-01-01 00:40:00,38.0,35.0,27.90,South,180,0.0,0.0,86,0.00,,,0.00,Rainwise IP-100,2013-01-01 05:40:00,
2013-01-01 00:45:00,38.0,35.0,27.89,South,180,0.0,0.0,86,0.00,,,0.00,Rainwise IP-100,2013-01-01 05:45:00,
2013-01-01 00:50:00,38.0,35.0,27.89,South,180,0.0,0.0,86,0.00,,,0.00,Rainwise IP-100,2013-01-01 05:50:00,
2013-01-01 00:55:00,38.0,35.0,27.89,South,180,0.0,0.0,86,0.00,,,0.00,Rainwise IP-100,2013-01-01 05:55:00,
2013-01-01 01:00:00,38.0,35.0,27.89,NE,45,0.0,0.0,87,0.00,,,0.00,Rainwise IP-100,2013-01-01 06:00:00,
2013-01-01 01:05:00,38.0,35.0,27.87,East,90,0.0,0.0,87,0.00,,,0.00,Rainwise IP-100,2013-01-01 06:05:00,
2013-01-01 01:10:00,38.0,35.0,27.87,East,90,0.0,0.0,88,0.00,,,0.00,Rainwise IP-100,2013-01-01 06:10:00,
2013-01-01 01:15:00,38.0,35.0,27.88,East,90,0.0,0.0,85,0.00,,,0.00,Rainwise IP-100,2013-01-01 06:15:00,
2013-01-01 01:20:00,38.0,31.0,27.88,SSW,202,0.0,0.0,73,0.00,,,0.00,Rainwise IP-100,2013-01-01 06:20:00,
2013-01-01 01:25:00,39.0,33.0,27.87,SE,135,0.0,2.0,81,0.00,,,0.00,Rainwise IP-100,2013-01-01 06:25:00,
2013-01-01 01:30:00,39.0,35.0,27.87,SSW,202,0.0,0.0,83,0.00,,,0.00,Rainwise IP-100,2013-01-01 06:30:00,
2013-01-01 01:35:00,39.0,35.0,27.89,SSW,202,0.0,0.0,85,0.00,,,0.00,Rainwise IP-100,2013-01-01 06:35:00,
2013-01-01 01:40:00,38.0,33.0,27.89,SSW,202,0.0,0.0,84,0.00,,,0.00,Rainwise IP-100,2013-01-01 06:40:00,
2013-01-01 01:45:00,38.0,35.0,27.88,SSW,202,0.0,0.0,86,0.00,,,0.00,Rainwise IP-100,2013-01-01 06:45:00,
2013-01-01 01:50:00,38.0,35.0,27.88,SSW,202,0.0,0.0,86,0.00,,,0.00,Rainwise IP-100,2013-01-01 06:50:00,
2013-01-01 01:55:00,38.0,35.0,27.87,NE,45,0.0,0.0,87,0.00,,,0.00,Rainwise IP-100,2013-01-01 06:55:00,
2013-01-01 02:00:00,38.0,35.0,27.87,NE,45,0.0,0.0,88,0.00,,,0.00,Rainwise IP-100,2013-01-01 07:00:00,
2013-01-01 02:05:00,38.0,33.0,27.88,NE,45,0.0,0.0,84,0.00,,,0.00,Rainwise IP-100,2013-01-01 07:05:00,
2013-01-01 02:10:00,38.0,36.0,27.88,NE,45,0.0,0.0,90,0.00,,,0.00,Rainwise IP-100,2013-01-01 07:10:00,
2013-01-01 02:15:00,38.0,35.0,27.88,NE,45,0.0,0.0,88,0.00,,,0.00,Rainwise IP-100,2013-01-01 07:15:00,
2013-01-01 02:20:00,38.0,35.0,27.88,NE,45,0.0,0.0,87,0.00,,,0.00,Rainwise IP-100,2013-01-01 07:20:00,
2013-01-01 02:25:00,38.0,36.0,27.88,NE,45,0.0,0.0,90,0.00,,,0.00,Rainwise IP-100,2013-01-01 07:25:00,
2013-01-01 02:30:00,38.0,36.0,27.88,NE,45,0.0,0.0,90,0.00,,,0.00,Rainwise IP-100,2013-01-01 07:30:00,
2013-01-01 02:35:00,38.0,37.0,27.87,NE,45,0.0,0.0,94,0.00,,,0.00,Rainwise IP-100,2013-01-01 07:35:00,
2013-01-01 02:40:00,37.0,37.0,27.87,NE,45,0.0,0.0,99,0.00,,,0.00,Rainwise IP-100,2013-01-01 07:40:00,
2013-01-01 02:45:00,37.0,36.0,27.88,NE,45,0.0,0.0,96,0.00,,,0.00,Rainwise IP-100,2013-01-01 07:45:00,
2013-01-01 02:50:00,37.0,36.0,27.88,NE,45,0.0,0.0,95,0.00,,,0.00,Rainwise IP-100,2013-01-01 07:50:00,
2013-01-01 02:55:00,37.0,36.0,27.89,NE,45,0.0,0.0,94,0.00,,,0.00,Rainwise IP-100,2013-01-01 07:55:00,
2013-01-01 03:00:00,37.0,35.0,27.89,NE,45,0.0,0.0,93,0.00,,,0.00,Rainwise IP-100,2013-01-01 08:00:00,
2013-01-01 03:05:00,37.0,35.0,27.88,NE,45,0.0,0.0,92,0.00,,,0.00,Rainwise IP-100,2013-01-01 08:05:00,
2013-01-01 03:10:00,37.0,35.0,27.88,NE,45,0.0,0.0,92,0.00,,,0.00,Rainwise IP-100,2013-01-01 08:10:00,
2013-01-01 03:15:00,37.0,35.0,27.87,NE,45,0.0,0.0,92,0.00,,,0.00,Rainwise IP-100,2013-01-01 08:15:00,
2013-01-01 03:20:00,37.0,36.0,27.87,NE,45,0.0,0.0,95,0.00,,,0.00,Rainwise IP-100,2013-01-01 08:20:00,
2013-01-01 03:25:00,37.0,36.0,27.88,NE,45,0.0,0.0,94,0.00,,,0.00,Rainwise IP-100,2013-01-01 08:25:00,
2013-01-01 03:30:00,37.0,36.0,27.88,NE,45,0.0,0.0,95,0.00,,,0.00,Rainwise IP-100,2013-01-01 08:30:00,
2013-01-01 03:35:00,37.0,36.0,27.87,NE,45,0.0,0.0,95,0.00,,,0.00,Rainwise IP-100,2013-01-01 08:35:00,
2013-01-01 03:40:00,37.0,36.0,27.87,NE,45,0.0,0.0,95,0.00,,,0.00,Rainwise IP-100,2013-01-01 08:40:00,
2013-01-01 03:45:00,37.0,36.0,27.88,SSW,202,0.0,0.0,95,0.00,,,0.00,Rainwise IP-100,2013-01-01 08:45:00,
2013-01-01 03:50:00,37.0,36.0,27.88,WNW,292,0.0,0.0,95,0.00,,,0.00,Rainwise IP-100,2013-01-01 08:50:00,
2013-01-01 03:55:00,37.0,36.0,27.87,WNW,292,0.0,0.0,96,0.00,,,0.00,Rainwise IP-100,2013-01-01 08:55:00,
2013-01-01 03:58:00,37.0,36.0,27.87,WNW,292,0.0,0.0,96,0.00,,,0.00,Rainwise IP-100,2013-01-01 08:58:00,
2013-01-01 04:03:00,37.0,36.0,27.87,WNW,292,0.0,0.0,96,0.00,,,0.00,Rainwise IP-100,2013-01-01 09:03:00,
2013-01-01 04:08:00,37.0,36.0,27.86,North,360,0.0,0.0,96,0.00,,,0.00,Rainwise IP-100,2013-01-01 09:08:00,
2013-01-01 04:13:00,37.0,37.0,27.86,North,360,0.0,0.0,98,0.00,,,0.00,Rainwise IP-100,2013-01-01 09:13:00,
2013-01-01 04:18:00,37.0,37.0,27.86,WNW,292,0.0,0.0,100,0.00,,,0.00,Rainwise IP-100,2013-01-01 09:18:00,
2013-01-01 04:23:00,37.0,37.0,27.87,WNW,292,0.0,0.0,100,0.00,,,0.00,Rainwise IP-100,2013-01-01 09:23:00,
2013-01-01 04:28:00,37.0,37.0,27.87,WNW,292,0.0,0.0,100,0.00,,,0.00,Rainwise IP-100,2013-01-01 09:28:00,
2013-01-01 04:33:00,37.0,36.0,27.87,WNW,292,0.0,0.0,96,0.00,,,0.00,Rainwise IP-100,2013-01-01 09:33:00,
2013-01-01 04:38:00,37.0,36.0,27.87,WNW,292,0.0,0.0,96,0.00,,,0.00,Rainwise IP-100,2013-01-01 09:38:00,
2013-01-01 04:43:00,37.0,36.0,27.86,WNW,292,0.0,0.0,97,0.00,,,0.00,Rainwise IP-100,2013-01-01 09:43:00,
2013-01-01 04:48:00,37.0,37.0,27.86,WNW,292,0.0,0.0,99,0.00,,,0.00,Rainwise IP-100,2013-01-01 09:48:00,
2013-01-01 04:53:00,37.0,36.0,27.86,WNW,292,0.0,0.0,97,0.00,,,0.00,Rainwise IP-100,2013-01-01 09:53:00,
2013-01-01 04:58:00,37.0,37.0,27.86,WNW,292,0.0,0.0,100,0.00,,,0.00,Rainwise IP-100,2013-01-01 09:58:00,
2013-01-01 05:03:00,37.0,37.0,27.86,WNW,292,0.0,0.0,98,0.00,,,0.00,Rainwise IP-100,2013-01-01 10:03:00,
2013-01-01 05:08:00,37.0,36.0,27.86,WNW,292,0.0,0.0,97,0.00,,,0.00,Rainwise IP-100,2013-01-01 10:08:00,
2013-01-01 05:13:00,37.0,37.0,27.86,WNW,292,0.0,0.0,98,0.00,,,0.00,Rainwise IP-100,2013-01-01 10:13:00,
2013-01-01 05:18:00,37.0,36.0,27.86,WNW,292,0.0,0.0,96,0.00,,,0.00,Rainwise IP-100,2013-01-01 10:18:00,
2013-01-01 05:23:00,37.0,36.0,27.85,SSW,202,0.0,0.0,96,0.00,,,0.00,Rainwise IP-100,2013-01-01 10:23:00,
2013-01-01 05:28:00,37.0,36.0,27.85,SSW,202,0.0,0.0,97,0.00,,,0.00,Rainwise IP-100,2013-01-01 10:28:00,
2013-01-01 05:33:00,37.0,36.0,27.86,SSW,202,0.0,0.0,97,0.00,,,0.00,Rainwise IP-100,2013-01-01 10:33:00,
2013-01-01 05:38:00,37.0,37.0,27.86,SSW,202,0.0,0.0,98,0.00,,,0.00,Rainwise IP-100,2013-01-01 10:38:00,
2013-01-01 05:43:00,37.0,36.0,27.88,SSW,202,0.0,0.0,96,0.00,,,0.00,Rainwise IP-100,2013-01-01 10:43:00,
2013-01-01 05:48:00,37.0,36.0,27.88,SSW,202,0.0,0.0,95,0.00,,,0.00,Rainwise IP-100,2013-01-01 10:48:00,
2013-01-01 05:53:00,37.0,36.0,27.87,SSW,202,0.0,0.0,95,0.00,,,0.00,Rainwise IP-100,2013-01-01 10:53:00,
2013-01-01 05:58:00,37.0,36.0,27.87,SSW,202,0.0,0.0,97,0.00,,,0.00,Rainwise IP-100,2013-01-01 10:58:00,
2013-01-01 06:03:00,37.0,36.0,27.88,SSW,202,0.0,0.0,97,0.00,,,0.00,Rainwise IP-100,2013-01-01 11:03:00,
2013-01-01 06:08:00,37.0,37.0,27.88,SSW,202,0.0,0.0,100,0.00,,,0.00,Rainwise IP-100,2013-01-01 11:08:00,
2013-01-01 06:13:00,37.0,37.0,27.89,SSW,202,0.0,0.0,100,0.00,,,0.00,Rainwise IP-100,2013-01-01 11:13:00,
2013-01-01 06:18:00,37.0,37.0,27.89,SSW,202,0.0,0.0,98,0.00,,,0.00,Rainwise IP-100,2013-01-01 11:18:00,
2013-01-01 06:23:00,37.0,36.0,27.90,SSW,202,0.0,0.0,96,0.00,,,0.00,Rainwise IP-100,2013-01-01 11:23:00,
2013-01-01 06:28:00,37.0,36.0,27.90,SSW,202,0.0,0.0,96,0.00,,,0.00,Rainwise IP-100,2013-01-01 11:28:00,
2013-01-01 06:33:00,37.0,36.0,27.90,SE,135,0.0,2.0,95,0.00,,,0.00,Rainwise IP-100,2013-01-01 11:33:00,
2013-01-01 06:38:00,37.0,36.0,27.90,SE,135,0.0,2.0,94,0.00,,,0.00,Rainwise IP-100,2013-01-01 11:38:00,
2013-01-01 06:43:00,37.0,33.0,27.90,ENE,67,0.0,2.0,87,0.00,,,0.00,Rainwise IP-100,2013-01-01 11:43:00,
2013-01-01 06:48:00,38.0,35.0,27.90,NNE,22,0.0,2.0,89,0.00,,,0.00,Rainwise IP-100,2013-01-01 11:48:00,
2013-01-01 06:53:00,38.0,36.0,27.90,NNE,22,0.0,1.0,93,0.00,,,0.00,Rainwise IP-100,2013-01-01 11:53:00,
2013-01-01 06:58:00,38.0,36.0,27.90,NNE,22,0.0,0.0,90,0.00,,,0.00,Rainwise IP-100,2013-01-01 11:58:00,
2013-01-01 07:03:00,38.0,36.0,27.90,NNE,22,0.0,0.0,91,0.00,,,0.00,Rainwise IP-100,2013-01-01 12:03:00,
2013-01-01 07:08:00,37.0,35.0,27.90,NNE,22,0.0,0.0,93,0.00,,,0.00,Rainwise IP-100,2013-01-01 12:08:00,
2013-01-01 07:13:00,37.0,36.0,27.90,NNE,22,0.0,2.0,94,0.00,,,0.00,Rainwise IP-100,2013-01-01 12:13:00,
2013-01-01 07:18:00,37.0,36.0,27.90,NNE,22,0.0,1.0,95,0.00,,,0.00,Rainwise IP-100,2013-01-01 12:18:00,
2013-01-01 07:23:00,37.0,36.0,27.91,ENE,67,0.0,0.0,95,0.00,,,0.00,Rainwise IP-100,2013-01-01 12:23:00,
2013-01-01 07:28:00,37.0,36.0,27.91,ENE,67,1.0,1.0,96,0.00,,,0.00,Rainwise IP-100,2013-01-01 12:28:00,
2013-01-01 07:33:00,37.0,36.0,27.90,NNE,22,0.0,2.0,95,0.00,,,0.00,Rainwise IP-100,2013-01-01 12:33:00,
2013-01-01 07:38:00,37.0,37.0,27.90,NNE,22,0.0,0.0,99,0.00,,,0.00,Rainwise IP-100,2013-01-01 12:38:00,
2013-01-01 07:43:00,38.0,37.0,27.89,SSE,157,0.0,1.0,97,0.00,,,0.00,Rainwise IP-100,2013-01-01 12:43:00,
2013-01-01 07:48:00,38.0,37.0,27.89,NE,45,1.0,2.0,97,0.00,,,0.00,Rainwise IP-100,2013-01-01 12:48:00,
2013-01-01 07:53:00,38.0,36.0,27.89,NE,45,1.0,2.0,91,0.00,,,0.00,Rainwise IP-100,2013-01-01 12:53:00,
2013-01-01 07:58:00,39.0,38.0,27.89,NE,45,0.0,2.0,95,0.00,,,0.00,Rainwise IP-100,2013-01-01 12:58:00,
2013-01-01 08:03:00,38.0,38.0,27.89,SSW,202,0.0,1.0,98,0.00,,,0.00,Rainwise IP-100,2013-01-01 13:03:00,
2013-01-01 08:08:00,38.0,38.0,27.89,South,180,0.0,1.0,100,0.00,,,0.00,Rainwise IP-100,2013-01-01 13:08:00,
2013-01-01 08:13:00,38.0,38.0,27.90,South,180,0.0,0.0,100,0.00,,,0.00,Rainwise IP-100,2013-01-01 13:13:00,
2013-01-01 08:18:00,38.0,38.0,27.90,South,180,0.0,0.0,100,0.00,,,0.00,Rainwise IP-100,2013-01-01 13:18:00,
2013-01-01 08:23:00,37.0,37.0,27.90,South,180,0.0,0.0,100,0.06,,,0.01,Rainwise IP-100,2013-01-01 13:23:00,
2013-01-01 08:28:00,37.0,37.0,27.90,South,180,0.0,0.0,100,0.06,,,0.01,Rainwise IP-100,2013-01-01 13:28:00,
2013-01-01 08:33:00,37.0,37.0,27.91,South,180,0.0,0.0,100,0.00,,,0.01,Rainwise IP-100,2013-01-01 13:33:00,
2013-01-01 08:38:00,37.0,37.0,27.91,South,180,0.0,0.0,100,0.00,,,0.01,Rainwise IP-100,2013-01-01 13:38:00,
2013-01-01 08:43:00,37.0,37.0,27.91,South,180,0.0,0.0,100,0.00,,,0.01,Rainwise IP-100,2013-01-01 13:43:00,
2013-01-01 08:48:00,37.0,37.0,27.91,South,180,0.0,0.0,100,0.00,,,0.01,Rainwise IP-100,2013-01-01 13:48:00,
2013-01-01 08:53:00,37.0,37.0,27.92,South,180,0.0,0.0,100,0.00,,,0.01,Rainwise IP-100,2013-01-01 13:53:00,
2013-01-01 08:58:00,37.0,37.0,27.92,South,180,0.0,0.0,100,0.00,,,0.01,Rainwise IP-100,2013-01-01 13:58:00,
2013-01-01 09:03:00,37.0,37.0,27.92,South,180,0.0,0.0,100,0.00,,,0.01,Rainwise IP-100,2013-01-01 14:03:00,
2013-01-01 09:08:00,37.0,37.0,27.92,South,180,0.0,0.0,100,0.00,,,0.01,Rainwise IP-100,2013-01-01 14:08:00,
2013-01-01 09:13:00,37.0,37.0,27.91,South,180,0.0,0.0,100,0.00,,,0.01,Rainwise IP-100,2013-01-01 14:13:00,
2013-01-01 09:18:00,37.0,37.0,27.91,South,180,0.0,0.0,100,0.00,,,0.01,Rainwise IP-100,2013-01-01 14:18:00,
2013-01-01 09:23:00,37.0,37.0,27.92,South,180,0.0,0.0,100,0.00,,,0.01,Rainwise IP-100,2013-01-01 14:23:00,
2013-01-01 09:28:00,37.0,37.0,27.92,South,180,0.0,0.0,100,0.00,,,0.01,Rainwise IP-100,2013-01-01 14:28:00,
2013-01-01 09:33:00,37.0,37.0,27.92,South,180,0.0,0.0,100,0.00,,,0.01,Rainwise IP-100,2013-01-01 14:33:00,
2013-01-01 09:38:00,37.0,37.0,27.92,South,180,0.0,0.0,100,0.00,,,0.01,Rainwise IP-100,2013-01-01 14:38:00,
2013-01-01 09:43:00,38.0,38.0,27.91,South,180,0.0,0.0,100,0.00,,,0.01,Rainwise IP-100,2013-01-01 14:43:00,
2013-01-01 09:48:00,38.0,38.0,27.91,South,180,0.0,0.0,100,0.00,,,0.01,Rainwise IP-100,2013-01-01 14:48:00,
2013-01-01 09:53:00,38.0,38.0,27.90,East,90,0.0,0.0,100,0.00,,,0.01,Rainwise IP-100,2013-01-01 14:53:00,
2013-01-01 09:59:00,38.0,38.0,27.90,East,90,0.0,0.0,100,0.00,,,0.01,Rainwise IP-100,2013-01-01 14:59:00,
2013-01-01 10:04:00,38.0,38.0,27.91,East,90,0.0,0.0,100,0.00,,,0.01,Rainwise IP-100,2013-01-01 15:04:00,
2013-01-01 10:09:00,38.0,38.0,27.91,East,90,0.0,0.0,100,0.00,,,0.01,Rainwise IP-100,2013-01-01 15:09:00,
2013-01-01 10:14:00,38.0,38.0,27.92,East,90,0.0,0.0,100,0.00,,,0.01,Rainwise IP-100,2013-01-01 15:14:00,
2013-01-01 10:19:00,38.0,38.0,27.92,East,90,0.0,0.0,100,0.06,,,0.02,Rainwise IP-100,2013-01-01 15:19:00,
2013-01-01 10:24:00,38.0,38.0,27.92,East,90,0.0,0.0,100,0.06,,,0.02,Rainwise IP-100,2013-01-01 15:24:00,
2013-01-01 10:29:00,38.0,38.0,27.92,East,90,0.0,0.0,100,0.00,,,0.02,Rainwise IP-100,2013-01-01 15:29:00,
2013-01-01 10:34:00,38.0,38.0,27.91,East,90,0.0,0.0,100,0.00,,,0.02,Rainwise IP-100,2013-01-01 15:34:00,
2013-01-01 10:39:00,38.0,38.0,27.91,East,90,0.0,0.0,100,0.00,,,0.02,Rainwise IP-100,2013-01-01 15:39:00,
2013-01-01 10:44:00,38.0,38.0,27.91,East,90,0.0,0.0,100,0.00,,,0.02,Rainwise IP-100,2013-01-01 15:44:00,
2013-01-01 10:49:00,38.0,38.0,27.91,East,90,0.0,0.0,100,0.00,,,0.02,Rainwise IP-100,2013-01-01 15:49:00,
2013-01-01 10:54:00,38.0,38.0,27.90,East,90,0.0,0.0,100,0.00,,,0.02,Rainwise IP-100,2013-01-01 15:54:00,
2013-01-01 10:59:00,38.0,38.0,27.90,East,90,0.0,0.0,100,0.00,,,0.02,Rainwise IP-100,2013-01-01 15:59:00,
2013-01-01 11:04:00,39.0,39.0,27.90,East,90,0.0,0.0,100,0.00,,,0.02,Rainwise IP-100,2013-01-01 16:04:00,
2013-01-01 11:09:00,39.0,39.0,27.90,East,90,0.0,0.0,100,0.00,,,0.02,Rainwise IP-100,2013-01-01 16:09:00,
2013-01-01 11:14:00,39.0,39.0,27.90,East,90,0.0,0.0,100,0.00,,,0.02,Rainwise IP-100,2013-01-01 16:14:00,
2013-01-01 11:19:00,39.0,39.0,27.90,East,90,0.0,0.0,100,0.00,,,0.02,Rainwise IP-100,2013-01-01 16:19:00,
2013-01-01 11:24:00,39.0,39.0,27.90,East,90,0.0,0.0,100,0.00,,,0.02,Rainwise IP-100,2013-01-01 16:24:00,
2013-01-01 11:29:00,39.0,39.0,27.90,East,90,0.0,0.0,100,0.00,,,0.02,Rainwise IP-100,2013-01-01 16:29:00,
2013-01-01 11:34:00,39.0,39.0,27.90,East,90,0.0,0.0,100,0.06,,,0.03,Rainwise IP-100,2013-01-01 16:34:00,
2013-01-01 11:39:00,39.0,39.0,27.90,East,90,0.0,0.0,100,0.06,,,0.03,Rainwise IP-100,2013-01-01 16:39:00,
2013-01-01 11:44:00,39.0,39.0,27.90,East,90,0.0,0.0,100,0.00,,,0.03,Rainwise IP-100,2013-01-01 16:44:00,
2013-01-01 11:49:00,39.0,39.0,27.90,East,90,0.0,0.0,100,0.06,,,0.04,Rainwise IP-100,2013-01-01 16:49:00,
2013-01-01 11:54:00,39.0,39.0,27.89,East,90,0.0,0.0,100,0.12,,,0.05,Rainwise IP-100,2013-01-01 16:54:00,
2013-01-01 11:59:00,39.0,39.0,27.89,East,90,0.0,0.0,100,0.06,,,0.05,Rainwise IP-100,2013-01-01 16:59:00,
2013-01-01 12:04:00,39.0,39.0,27.89,East,90,0.0,0.0,100,0.06,,,0.06,Rainwise IP-100,2013-01-01 17:04:00,
2013-01-01 12:09:00,39.0,39.0,27.89,East,90,0.0,0.0,100,0.18,,,0.08,Rainwise IP-100,2013-01-01 17:09:00,
2013-01-01 12:14:00,39.0,39.0,27.88,East,90,0.0,0.0,100,0.18,,,0.09,Rainwise IP-100,2013-01-01 17:14:00,
2013-01-01 12:19:00,39.0,39.0,27.88,East,90,0.0,0.0,100,0.12,,,0.11,Rainwise IP-100,2013-01-01 17:19:00,
2013-01-01 12:24:00,39.0,39.0,27.87,East,90,0.0,0.0,100,0.12,,,0.11,Rainwise IP-100,2013-01-01 17:24:00,
2013-01-01 12:29:00,39.0,39.0,27.87,East,90,0.0,0.0,100,0.12,,,0.12,Rainwise IP-100,2013-01-01 17:29:00,
2013-01-01 12:34:00,39.0,39.0,27.86,East,90,0.0,0.0,100,0.12,,,0.13,Rainwise IP-100,2013-01-01 17:34:00,
2013-01-01 12:39:00,39.0,39.0,27.86,East,90,0.0,0.0,100,0.12,,,0.14,Rainwise IP-100,2013-01-01 17:39:00,
2013-01-01 12:44:00,39.0,39.0,27.86,East,90,0.0,0.0,100,0.12,,,0.15,Rainwise IP-100,2013-01-01 17:44:00,
2013-01-01 12:49:00,39.0,39.0,27.86,East,90,0.0,0.0,100,0.06,,,0.16,Rainwise IP-100,2013-01-01 17:49:00,
2013-01-01 12:54:00,39.0,39.0,27.85,East,90,0.0,0.0,100,0.12,,,0.17,Rainwise IP-100,2013-01-01 17:54:00,
2013-01-01 12:59:00,39.0,39.0,27.85,East,90,0.0,0.0,100,0.18,,,0.18,Rainwise IP-100,2013-01-01 17:59:00,
2013-01-01 13:04:00,39.0,39.0,27.85,East,90,0.0,0.0,100,0.12,,,0.19,Rainwise IP-100,2013-01-01 18:04:00,
2013-01-01 13:09:00,39.0,39.0,27.85,SW,225,0.0,0.0,100,0.06,,,0.19,Rainwise IP-100,2013-01-01 18:09:00,
2013-01-01 13:14:00,39.0,39.0,27.85,SW,225,0.0,0.0,100,0.00,,,0.19,Rainwise IP-100,2013-01-01 18:14:00,
2013-01-01 13:19:00,39.0,39.0,27.85,SW,225,0.0,0.0,100,0.00,,,0.19,Rainwise IP-100,2013-01-01 18:19:00,
2013-01-01 13:24:00,39.0,39.0,27.83,SW,225,0.0,0.0,100,0.00,,,0.19,Rainwise IP-100,2013-01-01 18:24:00,
2013-01-01 13:29:00,40.0,40.0,27.83,SW,225,0.0,0.0,100,0.06,,,0.20,Rainwise IP-100,2013-01-01 18:29:00,
2013-01-01 13:34:00,40.0,40.0,27.83,SW,225,0.0,0.0,100,0.06,,,0.20,Rainwise IP-100,2013-01-01 18:34:00,
2013-01-01 13:39:00,40.0,40.0,27.83,SW,225,0.0,0.0,100,0.00,,,0.20,Rainwise IP-100,2013-01-01 18:39:00,
2013-01-01 13:44:00,40.0,40.0,27.83,SW,225,0.0,0.0,100,0.00,,,0.20,Rainwise IP-100,2013-01-01 18:44:00,
2013-01-01 13:49:00,40.0,40.0,27.83,SW,225,0.0,0.0,100,0.06,,,0.21,Rainwise IP-100,2013-01-01 18:49:00,
2013-01-01 13:54:00,40.0,40.0,27.83,SW,225,0.0,0.0,100,0.06,,,0.21,Rainwise IP-100,2013-01-01 18:54:00,
2013-01-01 13:59:00,40.0,40.0,27.83,SW,225,0.0,0.0,100,0.06,,,0.22,Rainwise IP-100,2013-01-01 18:59:00,
2013-01-01 14:04:00,39.0,39.0,27.82,SW,225,0.0,0.0,100,0.12,,,0.23,Rainwise IP-100,2013-01-01 19:04:00,
2013-01-01 14:09:00,39.0,39.0,27.82,SW,225,0.0,0.0,100,0.12,,,0.24,Rainwise IP-100,2013-01-01 19:09:00,
2013-01-01 14:14:00,39.0,39.0,27.82,SW,225,0.0,0.0,100,0.06,,,0.24,Rainwise IP-100,2013-01-01 19:14:00,
2013-01-01 14:19:00,39.0,39.0,27.82,SW,225,0.0,0.0,100,0.00,,,0.24,Rainwise IP-100,2013-01-01 19:19:00,
2013-01-01 14:24:00,40.0,40.0,27.82,SW,225,0.0,0.0,100,0.06,,,0.25,Rainwise IP-100,2013-01-01 19:24:00,
2013-01-01 14:29:00,40.0,40.0,27.82,SW,225,0.0,0.0,100,0.06,,,0.25,Rainwise IP-100,2013-01-01 19:29:00,
2013-01-01 14:34:00,40.0,40.0,27.82,SW,225,0.0,0.0,100,0.00,,,0.25,Rainwise IP-100,2013-01-01 19:34:00,
2013-01-01 14:39:00,40.0,40.0,27.82,SW,225,0.0,0.0,100,0.06,,,0.26,Rainwise IP-100,2013-01-01 19:39:00,
2013-01-01 14:44:00,41.0,41.0,27.82,SW,225,0.0,0.0,100,0.06,,,0.26,Rainwise IP-100,2013-01-01 19:44:00,
2013-01-01 14:49:00,41.0,41.0,27.82,SW,225,0.0,0.0,100,0.06,,,0.27,Rainwise IP-100,2013-01-01 19:49:00,
2013-01-01 14:54:00,41.0,41.0,27.81,SW,225,0.0,0.0,100,0.06,,,0.27,Rainwise IP-100,2013-01-01 19:54:00,
2013-01-01 14:59:00,41.0,41.0,27.81,SW,225,0.0,0.0,100,0.00,,,0.27,Rainwise IP-100,2013-01-01 19:59:00,
2013-01-01 15:04:00,41.0,41.0,27.80,SW,225,0.0,0.0,100,0.00,,,0.27,Rainwise IP-100,2013-01-01 20:04:00,
2013-01-01 15:09:00,41.0,41.0,27.80,SW,225,0.0,0.0,100,0.06,,,0.28,Rainwise IP-100,2013-01-01 20:09:00,
2013-01-01 15:14:00,41.0,41.0,27.80,SW,225,0.0,0.0,100,0.06,,,0.28,Rainwise IP-100,2013-01-01 20:14:00,
2013-01-01 15:19:00,41.0,41.0,27.80,SW,225,0.0,0.0,100,0.00,,,0.28,Rainwise IP-100,2013-01-01 20:19:00,
2013-01-01 15:24:00,41.0,41.0,27.81,SW,225,0.0,0.0,100,0.00,,,0.28,Rainwise IP-100,2013-01-01 20:24:00,
2013-01-01 15:29:00,41.0,41.0,27.81,SW,225,0.0,0.0,100,0.00,,,0.28,Rainwise IP-100,2013-01-01 20:29:00,
2013-01-01 15:34:00,41.0,41.0,27.80,SW,225,0.0,0.0,100,0.00,,,0.28,Rainwise IP-100,2013-01-01 20:34:00,
2013-01-01 15:39:00,42.0,42.0,27.80,SW,225,0.0,0.0,100,0.00,,,0.28,Rainwise IP-100,2013-01-01 20:39:00,
2013-01-01 15:44:00,42.0,42.0,27.81,SW,225,0.0,0.0,100,0.06,,,0.29,Rainwise IP-100,2013-01-01 20:44:00,
2013-01-01 15:49:00,42.0,42.0,27.81,SW,225,0.0,0.0,100,0.06,,,0.29,Rainwise IP-100,2013-01-01 20:49:00,
2013-01-01 15:54:00,42.0,42.0,27.81,SW,225,0.0,0.0,100,0.06,,,0.30,Rainwise IP-100,2013-01-01 20:54:00,
2013-01-01 15:59:00,42.0,42.0,27.81,SW,225,0.0,0.0,100,0.06,,,0.30,Rainwise IP-100,2013-01-01 20:59:00,
2013-01-01 16:04:00,42.0,42.0,27.81,SW,225,0.0,0.0,100,0.00,,,0.30,Rainwise IP-100,2013-01-01 21:04:00,
2013-01-01 16:09:00,42.0,42.0,27.81,SW,225,0.0,0.0,100,0.06,,,0.31,Rainwise IP-100,2013-01-01 21:09:00,
2013-01-01 16:14:00,42.0,42.0,27.81,SW,225,0.0,0.0,100,0.06,,,0.31,Rainwise IP-100,2013-01-01 21:14:00,
2013-01-01 16:19:00,42.0,42.0,27.81,SW,225,0.0,0.0,100,0.00,,,0.31,Rainwise IP-100,2013-01-01 21:19:00,
2013-01-01 16:24:00,42.0,42.0,27.81,SW,225,0.0,0.0,100,0.00,,,0.31,Rainwise IP-100,2013-01-01 21:24:00,
2013-01-01 16:29:00,42.0,42.0,27.81,SW,225,0.0,0.0,100,0.00,,,0.32,Rainwise IP-100,2013-01-01 21:29:00,
2013-01-01 16:34:00,42.0,42.0,27.82,SW,225,0.0,0.0,100,0.06,,,0.32,Rainwise IP-100,2013-01-01 21:34:00,
2013-01-01 16:39:00,42.0,42.0,27.82,SW,225,0.0,0.0,100,0.06,,,0.33,Rainwise IP-100,2013-01-01 21:39:00,
2013-01-01 16:44:00,42.0,42.0,27.82,SW,225,0.0,0.0,100,0.06,,,0.33,Rainwise IP-100,2013-01-01 21:44:00,
2013-01-01 16:49:00,42.0,42.0,27.82,SW,225,0.0,0.0,100,0.12,,,0.34,Rainwise IP-100,2013-01-01 21:49:00,
2013-01-01 16:54:00,42.0,42.0,27.82,SW,225,0.0,0.0,100,0.06,,,0.34,Rainwise IP-100,2013-01-01 21:54:00,
2013-01-01 16:59:00,42.0,42.0,27.82,SW,225,0.0,0.0,100,0.06,,,0.35,Rainwise IP-100,2013-01-01 21:59:00,
2013-01-01 17:04:00,42.0,42.0,27.82,SW,225,0.0,0.0,100,0.06,,,0.35,Rainwise IP-100,2013-01-01 22:04:00,
2013-01-01 17:09:00,42.0,42.0,27.82,SW,225,0.0,0.0,100,0.00,,,0.35,Rainwise IP-100,2013-01-01 22:09:00,
2013-01-01 17:14:00,42.0,42.0,27.82,SW,225,0.0,0.0,100,0.06,,,0.36,Rainwise IP-100,2013-01-01 22:14:00,
2013-01-01 17:19:00,42.0,42.0,27.82,SW,225,0.0,0.0,100,0.06,,,0.36,Rainwise IP-100,2013-01-01 22:19:00,
2013-01-01 17:24:00,42.0,42.0,27.82,SW,225,0.0,0.0,100,0.00,,,0.36,Rainwise IP-100,2013-01-01 22:24:00,
2013-01-01 17:29:00,42.0,42.0,27.82,SW,225,0.0,0.0,100,0.06,,,0.37,Rainwise IP-100,2013-01-01 22:29:00,
2013-01-01 17:34:00,42.0,42.0,27.80,SW,225,0.0,0.0,100,0.06,,,0.37,Rainwise IP-100,2013-01-01 22:34:00,
2013-01-01 17:39:00,42.0,42.0,27.80,SW,225,0.0,0.0,100,0.06,,,0.38,Rainwise IP-100,2013-01-01 22:39:00,
2013-01-01 17:44:00,42.0,42.0,27.80,SW,225,0.0,0.0,100,0.06,,,0.38,Rainwise IP-100,2013-01-01 22:44:00,
2013-01-01 17:49:00,42.0,42.0,27.80,SW,225,0.0,0.0,100,0.00,,,0.38,Rainwise IP-100,2013-01-01 22:49:00,
2013-01-01 17:54:00,42.0,42.0,27.80,SW,225,0.0,0.0,100,0.00,,,0.38,Rainwise IP-100,2013-01-01 22:54:00,
2013-01-01 17:59:00,42.0,42.0,27.80,SW,225,0.0,0.0,100,0.06,,,0.39,Rainwise IP-100,2013-01-01 22:59:00,
2013-01-01 18:04:00,42.0,42.0,27.80,SW,225,0.0,0.0,100,0.06,,,0.39,Rainwise IP-100,2013-01-01 23:04:00,
2013-01-01 18:09:00,42.0,42.0,27.80,SW,225,0.0,0.0,100,0.00,,,0.39,Rainwise IP-100,2013-01-01 23:09:00,
2013-01-01 18:14:00,42.0,42.0,27.80,SW,225,0.0,0.0,100,0.00,,,0.39,Rainwise IP-100,2013-01-01 23:14:00,
2013-01-01 18:19:00,42.0,42.0,27.80,SW,225,0.0,0.0,100,0.00,,,0.39,Rainwise IP-100,2013-01-01 23:19:00,
2013-01-01 18:24:00,42.0,42.0,27.79,SW,225,0.0,0.0,100,0.00,,,0.39,Rainwise IP-100,2013-01-01 23:24:00,
2013-01-01 18:29:00,42.0,42.0,27.79,SW,225,0.0,0.0,100,0.00,,,0.39,Rainwise IP-100,2013-01-01 23:29:00,
2013-01-01 18:34:00,42.0,42.0,27.80,SW,225,0.0,0.0,100,0.00,,,0.39,Rainwise IP-100,2013-01-01 23:34:00,
2013-01-01 18:39:00,42.0,42.0,27.80,SW,225,0.0,0.0,100,0.00,,,0.39,Rainwise IP-100,2013-01-01 23:39:00,
2013-01-01 18:44:00,42.0,42.0,27.80,SW,225,0.0,0.0,100,0.00,,,0.39,Rainwise IP-100,2013-01-01 23:44:00,
2013-01-01 18:49:00,42.0,42.0,27.80,SW,225,0.0,0.0,100,0.00,,,0.39,Rainwise IP-100,2013-01-01 23:49:00,
2013-01-01 18:54:00,42.0,42.0,27.81,SW,225,0.0,0.0,100,0.00,,,0.39,Rainwise IP-100,2013-01-01 23:54:00,
2013-01-01 18:59:00,42.0,42.0,27.81,SW,225,0.0,0.0,100,0.06,,,0.40,Rainwise IP-100,2013-01-01 23:59:00,
2013-01-01 19:04:00,42.0,42.0,27.82,SW,225,0.0,0.0,100,0.06,,,0.40,Rainwise IP-100,2013-01-02 00:04:00,
2013-01-01 19:09:00,42.0,42.0,27.82,SW,225,0.0,0.0,100,0.06,,,0.41,Rainwise IP-100,2013-01-02 00:09:00,
2013-01-01 19:14:00,42.0,42.0,27.82,SW,225,0.0,0.0,100,0.06,,,0.41,Rainwise IP-100,2013-01-02 00:14:00,
2013-01-01 19:19:00,42.0,42.0,27.82,SW,225,0.0,0.0,100,0.06,,,0.42,Rainwise IP-100,2013-01-02 00:19:00,
2013-01-01 19:24:00,42.0,42.0,27.81,SW,225,0.0,0.0,100,0.12,,,0.43,Rainwise IP-100,2013-01-02 00:24:00,
2013-01-01 19:29:00,42.0,42.0,27.81,SW,225,0.0,0.0,100,0.06,,,0.43,Rainwise IP-100,2013-01-02 00:29:00,
2013-01-01 19:34:00,42.0,42.0,27.82,SW,225,0.0,0.0,100,0.00,,,0.43,Rainwise IP-100,2013-01-02 00:34:00,
2013-01-01 19:39:00,42.0,42.0,27.82,SW,225,0.0,0.0,100,0.06,,,0.44,Rainwise IP-100,2013-01-02 00:39:00,
2013-01-01 19:44:00,42.0,42.0,27.81,SW,225,0.0,0.0,100,0.06,,,0.44,Rainwise IP-100,2013-01-02 00:44:00,
2013-01-01 19:49:00,42.0,42.0,27.81,SE,135,0.0,0.0,100,0.00,,,0.44,Rainwise IP-100,2013-01-02 00:49:00,
2013-01-01 19:54:00,42.0,42.0,27.81,SE,135,0.0,0.0,100,0.00,,,0.44,Rainwise IP-100,2013-01-02 00:54:00,
2013-01-01 19:59:00,42.0,42.0,27.81,SE,135,0.0,0.0,100,0.00,,,0.44,Rainwise IP-100,2013-01-02 00:59:00,
2013-01-01 20:04:00,42.0,42.0,27.82,SE,135,0.0,0.0,100,0.00,,,0.44,Rainwise IP-100,2013-01-02 01:04:00,
2013-01-01 20:09:00,42.0,42.0,27.82,SE,135,0.0,0.0,100,0.00,,,0.44,Rainwise IP-100,2013-01-02 01:09:00,
2013-01-01 20:14:00,42.0,42.0,27.81,SE,135,0.0,0.0,100,0.00,,,0.44,Rainwise IP-100,2013-01-02 01:14:00,
2013-01-01 20:19:00,42.0,42.0,27.81,SE,135,0.0,0.0,100,0.00,,,0.45,Rainwise IP-100,2013-01-02 01:19:00,
2013-01-01 20:24:00,42.0,42.0,27.80,SE,135,0.0,0.0,100,0.06,,,0.45,Rainwise IP-100,2013-01-02 01:24:00,
2013-01-01 20:29:00,42.0,42.0,27.80,SE,135,0.0,0.0,100,0.06,,,0.45,Rainwise IP-100,2013-01-02 01:29:00,
2013-01-01 20:34:00,42.0,42.0,27.80,SE,135,0.0,0.0,100,0.00,,,0.45,Rainwise IP-100,2013-01-02 01:34:00,
2013-01-01 20:39:00,42.0,42.0,27.80,SE,135,0.0,0.0,100,0.00,,,0.45,Rainwise IP-100,2013-01-02 01:39:00,
2013-01-01 20:44:00,42.0,42.0,27.79,SE,135,0.0,0.0,100,0.00,,,0.45,Rainwise IP-100,2013-01-02 01:44:00,
2013-01-01 20:49:00,42.0,42.0,27.79,SE,135,0.0,0.0,100,0.06,,,0.46,Rainwise IP-100,2013-01-02 01:49:00,
2013-01-01 20:54:00,42.0,42.0,27.79,SE,135,0.0,0.0,100,0.06,,,0.46,Rainwise IP-100,2013-01-02 01:54:00,
2013-01-01 20:59:00,42.0,42.0,27.79,SE,135,0.0,0.0,100,0.00,,,0.46,Rainwise IP-100,2013-01-02 01:59:00,
2013-01-01 21:04:00,42.0,42.0,27.80,SE,135,0.0,0.0,100,0.00,,,0.46,Rainwise IP-100,2013-01-02 02:04:00,
2013-01-01 21:09:00,42.0,42.0,27.80,SE,135,0.0,0.0,100,0.00,,,0.46,Rainwise IP-100,2013-01-02 02:09:00,
2013-01-01 21:14:00,42.0,42.0,27.80,SE,135,0.0,0.0,100,0.06,,,0.47,Rainwise IP-100,2013-01-02 02:14:00,
2013-01-01 21:19:00,42.0,42.0,27.80,SE,135,0.0,0.0,100,0.06,,,0.47,Rainwise IP-100,2013-01-02 02:19:00,
2013-01-01 21:24:00,42.0,42.0,27.80,SE,135,0.0,0.0,100,0.06,,,0.48,Rainwise IP-100,2013-01-02 02:24:00,
2013-01-01 21:29:00,42.0,42.0,27.80,SE,135,0.0,0.0,100,0.06,,,0.48,Rainwise IP-100,2013-01-02 02:29:00,
2013-01-01 21:34:00,42.0,42.0,27.80,SE,135,0.0,0.0,100,0.00,,,0.48,Rainwise IP-100,2013-01-02 02:34:00,
2013-01-01 21:39:00,42.0,42.0,27.80,SE,135,0.0,0.0,100,0.06,,,0.49,Rainwise IP-100,2013-01-02 02:39:00,
2013-01-01 21:44:00,42.0,42.0,27.81,SE,135,0.0,0.0,100,0.06,,,0.49,Rainwise IP-100,2013-01-02 02:44:00,
2013-01-01 21:49:00,42.0,42.0,27.81,SE,135,0.0,0.0,100,0.06,,,0.50,Rainwise IP-100,2013-01-02 02:49:00,
2013-01-01 21:54:00,42.0,42.0,27.79,SE,135,0.0,0.0,100,0.06,,,0.50,Rainwise IP-100,2013-01-02 02:54:00,
2013-01-01 21:59:00,42.0,42.0,27.79,SE,135,0.0,0.0,100,0.06,,,0.51,Rainwise IP-100,2013-01-02 02:59:00,
2013-01-01 22:04:00,42.0,42.0,27.78,SE,135,0.0,0.0,100,0.06,,,0.51,Rainwise IP-100,2013-01-02 03:04:00,
2013-01-01 22:09:00,42.0,42.0,27.78,SE,135,0.0,0.0,100,0.00,,,0.51,Rainwise IP-100,2013-01-02 03:09:00,
2013-01-01 22:14:00,42.0,42.0,27.79,SE,135,0.0,0.0,100,0.06,,,0.52,Rainwise IP-100,2013-01-02 03:14:00,
2013-01-01 22:19:00,42.0,42.0,27.79,SE,135,0.0,0.0,100,0.06,,,0.52,Rainwise IP-100,2013-01-02 03:19:00,
2013-01-01 22:24:00,42.0,42.0,27.80,SE,135,0.0,0.0,100,0.00,,,0.52,Rainwise IP-100,2013-01-02 03:24:00,
2013-01-01 22:29:00,42.0,42.0,27.80,SE,135,0.0,0.0,100,0.00,,,0.52,Rainwise IP-100,2013-01-02 03:29:00,
2013-01-01 22:34:00,42.0,42.0,27.80,SE,135,0.0,0.0,100,0.06,,,0.53,Rainwise IP-100,2013-01-02 03:34:00,
2013-01-01 22:39:00,42.0,42.0,27.80,SE,135,0.0,0.0,100,0.06,,,0.53,Rainwise IP-100,2013-01-02 03:39:00,
2013-01-01 22:44:00,42.0,42.0,27.79,ESE,112,0.0,2.0,100,0.06,,,0.54,Rainwise IP-100,2013-01-02 03:44:00,
2013-01-01 22:49:00,42.0,42.0,27.79,ESE,112,0.0,0.0,100,0.06,,,0.54,Rainwise IP-100,2013-01-02 03:49:00,
2013-01-01 22:54:00,42.0,42.0,27.79,ESE,112,0.0,0.0,100,0.06,,,0.55,Rainwise IP-100,2013-01-02 03:54:00,
2013-01-01 22:59:00,42.0,42.0,27.79,ESE,112,0.0,0.0,100,0.06,,,0.55,Rainwise IP-100,2013-01-02 03:59:00,
2013-01-01 23:04:00,42.0,42.0,27.78,ESE,112,0.0,0.0,100,0.00,,,0.55,Rainwise IP-100,2013-01-02 04:04:00,
2013-01-01 23:09:00,42.0,42.0,27.78,ESE,112,0.0,0.0,100,0.00,,,0.55,Rainwise IP-100,2013-01-02 04:09:00,
2013-01-01 23:14:00,42.0,42.0,27.80,ESE,112,0.0,0.0,100,0.00,,,0.55,Rainwise IP-100,2013-01-02 04:14:00,
2013-01-01 23:19:00,42.0,42.0,27.80,ESE,112,0.0,0.0,100,0.00,,,0.55,Rainwise IP-100,2013-01-02 04:19:00,
2013-01-01 23:24:00,42.0,42.0,27.79,ESE,112,0.0,0.0,100,0.00,,,0.55,Rainwise IP-100,2013-01-02 04:24:00,
2013-01-01 23:29:00,42.0,42.0,27.79,ESE,112,0.0,0.0,100,0.00,,,0.55,Rainwise IP-100,2013-01-02 04:29:00,
2013-01-01 23:34:00,42.0,42.0,27.80,ESE,112,0.0,0.0,100,0.00,,,0.55,Rainwise IP-100,2013-01-02 04:34:00,
2013-01-01 23:39:00,42.0,42.0,27.80,SSE,157,0.0,0.0,100,0.00,,,0.55,Rainwise IP-100,2013-01-02 04:39:00,
2013-01-01 23:44:00,42.0,42.0,27.79,SSE,157,0.0,0.0,100,0.00,,,0.55,Rainwise IP-100,2013-01-02 04:44:00,
2013-01-01 23:49:00,42.0,42.0,27.79,SSE,157,0.0,0.0,100,0.00,,,0.55,Rainwise IP-100,2013-01-02 04:49:00,
2013-01-01 23:54:00,42.0,42.0,27.80,SSE,157,0.0,0.0,100,0.00,,,0.55,Rainwise IP-100,2013-01-02 04:54:00,
2013-01-01 23:59:00,42.0,42.0,27.80,SW,225,0.0,3.0,100,0.00,,,0.55,Rainwise IP-100,2013-01-02 04:59:00,